DW5656 Weather Reports


Display with metric or nautical units.
time (UTC)temp
F
wind
direction
speed
MPH
gust
MPH
rain 1hr
in
rain 24hr
in
rain mn
in
humidity
%
barometer
mb
20170721043840 66 194 2.0 5.0 0.00 0.00 0.00 70 1011.1
20170721042940 66 204 2.0 5.0 0.00 0.00 0.00 70 1011.0
20170721042040 67 201 2.0 5.0 0.00 0.00 0.00 69 1010.8
20170721041140 67 205 2.0 4.0 0.00 0.00 0.00 70 1010.9
20170721040240 67 219 2.0 5.0 0.00 0.00 0.00 70 1010.7
20170721035340 67 204 3.0 6.0 0.00 0.00 0.00 70 1010.7
20170721034440 67 199 3.0 8.0 0.00 0.00 0.00 72 1010.8
20170721033540 67 204 3.0 5.0 0.00 0.00 0.00 73 1010.8
20170721032640 67 206 3.0 6.0 0.00 0.00 0.00 72 1010.8
20170721031740 68 201 2.0 7.0 0.00 0.00 0.00 72 1010.9
20170721030840 68 226 2.0 4.0 0.00 0.00 0.00 71 1010.8
20170721025940 68 205 2.0 6.0 0.00 0.00 0.00 72 1010.8
20170721025040 68 200 2.0 6.0 0.00 0.00 0.00 71 1010.8
20170721024140 68 207 2.0 5.0 0.00 0.00 0.00 71 1010.8
20170721023240 69 216 2.0 5.0 0.00 0.00 0.00 70 1010.8
20170721022340 69 215 2.0 6.0 0.00 0.00 0.00 72 1010.8
20170721021440 69 209 2.0 4.0 0.00 0.00 0.00 72 1010.8
20170721020540 69 202 3.0 7.0 0.00 0.00 0.00 72 1010.9
20170721015640 69 203 3.0 8.0 0.00 0.00 0.00 72 1010.8
20170721014740 69 225 3.0 6.0 0.00 0.00 0.00 71 1010.8
20170721013840 69 223 3.0 5.0 0.00 0.00 0.00 71 1010.8
20170721012940 70 214 3.0 7.0 0.00 0.00 0.00 72 1010.8
20170721012040 70 215 2.0 6.0 0.00 0.00 0.00 73 1010.8
20170721011140 70 207 2.0 5.0 0.00 0.00 0.00 74 1010.8
20170721010240 70 186 2.0 6.0 0.00 0.00 0.00 75 1010.9
20170721005340 70 188 2.0 7.0 0.00 0.00 0.00 75 1010.8
20170721004439 70 185 2.0 7.0 0.00 0.00 0.00 75 1010.8
20170721003540 70 182 3.0 6.0 0.00 0.00 0.00 75 1010.7
20170721002640 70 201 3.0 7.0 0.00 0.00 0.00 75 1010.7
20170721001740 70 182 2.0 6.0 0.00 0.00 0.00 75 1010.7
20170721000840 70 215 3.0 5.0 0.00 0.00 0.00 75 1010.8
20170720235940 70 209 4.0 8.0 0.00 0.00 0.00 75 1010.8
20170720235040 70 214 4.0 8.0 0.00 0.00 0.00 75 1010.8
20170720234139 70 208 4.0 10.0 0.00 0.00 0.00 75 1010.8
20170720233240 70 209 3.0 8.0 0.00 0.00 0.00 74 1010.7
20170720232340 71 209 4.0 7.0 0.00 0.00 0.00 73 1010.8
20170720231439 71 208 5.0 8.0 0.00 0.00 0.00 73 1010.7
20170720230540 71 207 4.0 10.0 0.00 0.00 0.00 73 1010.7
20170720225639 71 207 4.0 9.0 0.00 0.00 0.00 72 1010.7
20170720224740 71 206 5.0 12.0 0.00 0.00 0.00 71 1010.8
20170720223839 71 210 5.0 11.0 0.00 0.00 0.00 70 1010.8
20170720222940 72 200 4.0 9.0 0.00 0.00 0.00 70 1010.8
20170720222040 72 199 4.0 10.0 0.00 0.00 0.00 70 1010.8
20170720221140 72 232 3.0 7.0 0.00 0.00 0.00 70 1010.8
20170720220240 72 233 4.0 9.0 0.00 0.00 0.00 71 1010.9
20170720215339 72 205 5.0 11.0 0.00 0.00 0.00 72 1010.8
20170720214440 72 204 4.0 11.0 0.00 0.00 0.00 72 1010.7
20170720213539 72 209 5.0 9.0 0.00 0.00 0.00 72 1010.8
20170720212639 72 212 6.0 14.0 0.00 0.00 0.00 72 1010.8
20170720211739 72 210 6.0 15.0 0.00 0.00 0.00 71 1010.7
20170720210840 72 210 6.0 15.0 0.00 0.00 0.00 71 1010.6
20170720205939 73 204 6.0 13.0 0.00 0.00 0.00 70 1010.5
20170720205039 73 207 6.0 12.0 0.00 0.00 0.00 69 1010.5
20170720204140 73 207 5.0 16.0 0.00 0.00 0.00 69 1010.4
20170720203239 74 216 6.0 14.0 0.00 0.00 0.00 67 1010.4
20170720202339 74 214 5.0 14.0 0.00 0.00 0.00 66 1010.3
20170720201439 74 214 5.0 12.0 0.00 0.00 0.00 66 1010.2
20170720200539 74 208 6.0 11.0 0.00 0.00 0.00 65 1010.2
20170720195640 74 209 7.0 12.0 0.00 0.00 0.00 64 1010.1
20170720193839 75 207 6.0 11.0 0.00 0.00 0.00 62 1010.1
20170720192939 76 213 7.0 17.0 0.00 0.00 0.00 61 1010.0
20170720192039 76 208 7.0 15.0 0.00 0.00 0.00 61 1010.0
20170720191139 77 211 6.0 14.0 0.00 0.00 0.00 59 1009.9
20170720190240 78 218 7.0 13.0 0.00 0.00 0.00 56 1009.9
20170720185339 79 229 9.0 19.0 0.00 0.00 0.00 51 1009.8
20170720184439 79 218 8.0 18.0 0.00 0.00 0.00 50 1009.8
20170720183539 80 216 9.0 16.0 0.00 0.00 0.00 50 1009.8
20170720182639 80 229 9.0 19.0 0.00 0.00 0.00 51 1009.7
20170720181739 80 215 8.0 20.0 0.00 0.00 0.00 50 1009.8
20170720180839 81 218 7.0 21.0 0.00 0.00 0.00 49 1009.7
20170720175939 82 214 7.0 21.0 0.00 0.00 0.00 49 1009.7
20170720175039 82 209 7.0 14.0 0.00 0.00 0.00 48 1009.7
20170720174139 82 210 8.0 15.0 0.00 0.00 0.00 49 1009.7
20170720173240 82 214 7.0 16.0 0.00 0.00 0.00 49 1009.6
20170720172339 83 209 7.0 15.0 0.00 0.00 0.00 49 1009.6
20170720171440 83 207 8.0 17.0 0.00 0.00 0.00 47 1009.7
20170720170539 83 210 7.0 17.0 0.00 0.00 0.00 48 1009.7
20170720165639 84 199 8.0 16.0 0.00 0.00 0.00 46 1009.8
20170720164739 83 211 8.0 16.0 0.00 0.00 0.00 46 1009.9
20170720163840 84 208 7.0 16.0 0.00 0.00 0.00 44 1009.9
20170720162939 84 207 6.0 14.0 0.00 0.00 0.00 44 1009.9
20170720162039 84 203 8.0 15.0 0.00 0.00 0.00 43 1009.9
20170720161139 84 207 8.0 19.0 0.00 0.00 0.00 44 1009.9
20170720160239 84 192 8.0 15.0 0.00 0.00 0.00 44 1010.1
20170720155339 84 197 9.0 18.0 0.00 0.00 0.00 43 1010.1
20170720154439 84 208 8.0 19.0 0.00 0.00 0.00 42 1010.2
20170720153539 84 185 9.0 17.0 0.00 0.00 0.00 41 1010.3
20170720152639 84 187 7.0 17.0 0.00 0.00 0.00 39 1010.3
20170720151739 85 208 8.0 16.0 0.00 0.00 0.00 38 1010.4
20170720150839 85 209 8.0 17.0 0.00 0.00 0.00 38 1010.4
20170720145939 85 211 8.0 17.0 0.00 0.00 0.00 37 1010.5
20170720145039 84 208 7.0 17.0 0.00 0.00 0.00 37 1010.5
20170720144139 86 190 6.0 16.0 0.00 0.00 0.00 37 1010.7
20170720143239 85 203 8.0 16.0 0.00 0.00 0.00 38 1010.7
20170720142339 85 199 8.0 17.0 0.00 0.00 0.00 39 1010.9
20170720141439 84 210 8.0 16.0 0.00 0.00 0.00 39 1011.0
20170720140539 84 189 8.0 20.0 0.00 0.00 0.00 40 1011.1
20170720135639 84 206 9.0 16.0 0.00 0.00 0.00 40 1011.3
20170720134739 84 203 8.0 19.0 0.00 0.00 0.00 40 1011.4
20170720133839 84 201 8.0 17.0 0.00 0.00 0.00 40 1011.4
20170720132939 84 200 9.0 17.0 0.00 0.00 0.00 42 1011.4
20170720132039 85 197 6.0 19.0 0.00 0.00 0.00 41 1011.5
20170720131139 85 197 7.0 15.0 0.00 0.00 0.00 40 1011.4
20170720130239 84 214 6.0 15.0 0.00 0.00 0.00 42 1011.5
20170720125339 84 221 5.0 14.0 0.00 0.00 0.00 44 1011.7
20170720124439 84 202 6.0 11.0 0.00 0.00 0.00 45 1011.8
20170720123539 84 197 6.0 15.0 0.00 0.00 0.00 46 1011.9
20170720122639 84 196 6.0 12.0 0.00 0.00 0.00 45 1011.9
20170720121739 84 210 5.0 16.0 0.00 0.00 0.00 47 1012.1
20170720120839 84 205 4.0 11.0 0.00 0.00 0.00 48 1012.0
20170720115939 84 211 5.0 11.0 0.00 0.00 0.00 49 1012.1
20170720115039 84 189 5.0 12.0 0.00 0.00 0.00 49 1012.2
20170720114139 83 205 5.0 14.0 0.00 0.00 0.00 49 1012.3
20170720113239 82 254 5.0 10.0 0.00 0.00 0.00 50 1012.4
20170720112339 82 201 4.0 11.0 0.00 0.00 0.00 49 1012.5
20170720111439 82 181 4.0 10.0 0.00 0.00 0.00 50 1012.6
20170720110539 82 225 4.0 8.0 0.00 0.00 0.00 50 1012.6
20170720105639 81 178 5.0 10.0 0.00 0.00 0.00 52 1012.7
20170720104739 81 178 4.0 11.0 0.00 0.00 0.00 51 1012.7
20170720103839 81 173 3.0 10.0 0.00 0.00 0.00 53 1012.8
20170720102939 81 179 3.0 7.0 0.00 0.00 0.00 52 1012.8
20170720100740 81 244 3.0 6.0 0.00 0.00 0.00 55 1013.0
20170720095840 80 236 3.0 8.0 0.00 0.00 0.00 54 1013.1
20170720094940 79 230 3.0 8.0 0.00 0.00 0.00 56 1013.1
20170720094040 80 227 3.0 7.0 0.00 0.00 0.00 55 1013.1
20170720093140 79 252 3.0 6.0 0.00 0.00 0.00 56 1013.0
20170720092241 79 243 3.0 6.0 0.00 0.00 0.00 54 1013.1
20170720091340 79 283 2.0 5.0 0.00 0.00 0.00 55 1013.2
20170720090440 80 10 1.0 4.0 0.00 0.00 0.00 54 1013.2
20170720085540 80 99 1.0 3.0 0.00 0.00 0.00 54 1013.3
20170720084640 79 104 2.0 4.0 0.00 0.00 0.00 55 1013.3
20170720083740 78 82 3.0 6.0 0.00 0.00 0.00 56 1013.4
20170720082840 77 10 2.0 5.0 0.00 0.00 0.00 58 1013.5
20170720081940 77 267 1.0 3.0 0.00 0.00 0.00 58 1013.4
20170720081040 77 2 2.0 3.0 0.00 0.00 0.00 58 1013.4
20170720080140 76 42 3.0 5.0 0.00 0.00 0.00 57 1013.3
20170720075240 76 72 3.0 8.0 0.00 0.00 0.00 58 1013.4
20170720074340 76 82 2.0 7.0 0.00 0.00 0.00 59 1013.4
20170720073440 76 7 2.0 4.0 0.00 0.00 0.00 61 1013.3
20170720072540 75 16 2.0 4.0 0.00 0.00 0.00 62 1013.3
20170720071640 75 30 2.0 5.0 0.00 0.00 0.00 62 1013.2
20170720070740 74 354 3.0 7.0 0.00 0.00 0.00 63 1013.2
20170720065840 74 15 3.0 6.0 0.00 0.00 0.00 64 1013.1
20170720064940 74 35 3.0 6.0 0.00 0.00 0.00 63 1013.1
20170720064040 74 3 3.0 6.0 0.00 0.00 0.00 65 1013.0
20170720063140 73 351 4.0 8.0 0.00 0.00 0.00 67 1012.9
20170720062240 73 3 5.0 10.0 0.00 0.00 0.00 67 1012.9
20170720061340 73 9 4.0 10.0 0.00 0.00 0.00 67 1012.8
20170720060440 73 332 2.0 7.0 0.00 0.00 0.00 72 1012.7
20170720055540 73 343 2.0 6.0 0.00 0.00 0.00 72 1012.6
20170720054640 72 269 1.0 4.0 0.00 0.00 0.00 77 1012.6
20170720053740 71 250 1.0 2.0 0.00 0.00 0.00 81 1012.6
20170720052840 71 250 1.0 3.0 0.00 0.00 0.00 81 1012.6
20170720051940 71 250 1.0 2.0 0.00 0.00 0.00 82 1012.6
20170720051040 71 250 1.0 3.0 0.00 0.00 0.00 82 1012.5
20170720050140 71 251 1.0 3.0 0.00 0.00 0.00 82 1012.5
20170720045240 71 251 1.0 3.0 0.00 0.00 0.00 82 1012.5
20170720044340 71 251 1.0 3.0 0.00 0.00 0.00 82 1012.5